Wind_Speed
80 70 62 57 54 54 49 47 43 40 40 43 43 40 36 31 27 25 23 21 18 18 18 17 18 18 18 19 19 18 18 18 17 15 17 16 14 12 11 10 10 11 11 9
75 67 58 56 54 52 52 48 45 42 46 47 45 40 35 30 26 25 21 19 17 17 18 19 20 20 20 19 18 17 18 17 16 16 15 14 15 14 13 14 14 13 14 17
65 61 58 55 52 54 52 48 48 48 52 49 44 39 34 29 25 23 19 17 16 16 16 17 17 19 19 18 17 16 18 16 16 16 17 19 18 18 17 17 16 18 16 21
64 57 55 51 52 54 51 52 51 52 55 50 44 39 33 28 26 24 19 14 10 12 12 13 14 16 17 17 17 17 18 17 18 18 20 21 20 20 18 18 20 22 22 25
56 53 53 50 53 52 52 51 54 55 52 48 44 39 34 30 27 20 15 9 7 8 12 12 14 15 14 15 17 17 18 18 20 21 22 22 21 20 19 21 24 27 30 27
52 54 50 49 51 50 51 48 55 56 53 49 44 38 34 30 24 20 14 9 7 7 12 12 13 13 13 13 15 17 18 19 21 22 24 26 26 19 24 28 30 32 34 34
53 50 46 47 48 48 47 49 55 56 54 49 42 39 37 30 25 21 16 10 8 8 10 11 11 11 11 13 14 16 17 20 23 24 26 30 24 25 29 34 35 38 39 41
49 46 45 44 45 46 45 47 55 55 53 49 43 39 35 30 26 22 16 12 10 9 9 11 12 11 10 11 13 16 18 21 23 26 28 30 31 32 34 39 40 42 44 47
44 41 41 41 43 44 44 48 54 54 51 48 43 39 35 31 28 24 19 16 13 12 10 8 7 11 13 14 14 15 18 21 24 26 30 33 33 34 37 41 43 43 45 47
41 38 38 40 43 40 44 47 52 52 50 48 44 40 35 31 29 26 22 20 18 15 12 11 10 10 10 11 13 17 21 24 25 27 30 32 33 35 37 40 44 46 46 47
38 36 36 40 37 38 42 44 47 50 49 46 43 40 36 32 29 27 25 24 22 20 18 17 16 15 16 16 16 18 21 25 27 29 32 36 37 38 41 43 44 46 46 45
39 35 36 36 35 36 38 42 45 50 48 44 42 40 37 33 32 30 28 28 26 24 23 23 23 23 23 23 25 26 28 30 32 32 33 37 41 43 45 44 44 45 46 47
35 34 34 35 32 34 36 39 42 44 44 46 43 40 38 35 33 31 31 29 27 28 30 30 30 30 29 30 32 33 35 36 36 38 36 41 44 45 44 45 45 45 46 47
31 31 33 32 31 32 34 43 36 41 42 40 43 41 39 37 34 33 32 32 32 33 33 33 33 34 35 36 38 39 37 37 40 42 41 43 41 41 42 43 44 44 45 46
29 28 30 32 34 38 27 35 38 39 42 42 41 40 39 37 35 34 33 33 33 33 33 35 36 37 39 40 41 37 35 39 41 41 39 39 38 39 40 41 43 44 45 47
28 27 28 31 37 43 36 25 37 35 37 38 38 39 36 36 35 34 34 34 35 35 36 38 39 39 42 44 43 32 33 37 38 39 39 40 40 41 42 43 45 46 48 50
24 22 23 26 30 37 45 34 26 27 29 32 35 35 36 36 36 36 36 37 37 39 40 40 40 40 42 42 40 32 32 35 37 39 40 40 42 43 45 46 48 49 49 49
31 28 26 27 28 28 32 33 33 33 33 32 32 33 31 32 32 33 35 36 38 38 38 38 36 38 37 38 32 33 35 36 38 40 42 44 45 45 45 45 46 47 47 48
24 28 25 24 25 25 24 25 26 27 29 29 28 27 27 30 29 30 31 32 33 35 35 34 35 36 38 35 35 35 37 38 40 42 43 43 43 45 47 48 49 51 53 54
24 25 27 27 25 23 24 24 25 25 26 25 23 22 22 23 24 26 28 30 32 34 33 34 35 36 35 36 37 38 39 41 42 42 42 44 47 47 48 50 51 53 56 58
21 20 19 20 21 21 21 23 23 23 24 23 22 22 22 23 24 26 30 31 31 34 34 35 36 37 37 38 38 40 40 40 40 41 43 46 48 50 51 53 55 57 58 58
21 20 20 20 22 23 28 28 27 26 25 23 23 24 26 27 29 31 33 34 36 37 37 38 38 38 37 36 36 37 39 41 44 46 49 51 53 55 56 57 58 57 57 56
31 27 27 28 29 32 34 30 29 28 29 30 29 29 29 30 32 34 34 35 36 37 39 41 37 32 33 37 40 43 46 49 51 53 55 58 59 60 60 58 58 54 51 49
34 33 33 36 37 37 33 31 30 30 29 29 28 28 29 29 30 32 32 35 38 41 38 36 37 39 43 45 48 50 52 55 58 59 60 60 59 58 56 55 53 53 54 55
31 31 35 37 35 35 33 32 30 31 33 35 34 32 30 29 31 31 32 34 37 38 39 42 45 47 49 52 55 57 59 60 61 61 59 58 56 54 52 51 50 51 53 54
25 27 27 26 27 27 27 27 26 26 26 27 29 29 30 31 33 35 36 38 40 42 45 47 49 51 53 55 56 57 57 57 55 55 55 53 51 52 54 52 51 50 51 53
26 26 26 27 25 25 25 25 26 26 26 27 30 31 33 35 36 38 39 42 44 45 47 49 50 49 49 48 47 48 48 50 52 53 54 53 50 50 51 49 49 52 57 61
Wind_Direction
193 198 195 194 190 187 187 194 194 199 191 187 179 177 178 178 182 184 186 190 195 200 208 213 216 222 223 225 227 227 231 235 235 232 220 218 214 212 213 228 250 279 296 298
195 194 192 191 190 185 188 191 190 192 184 180 176 177 178 181 186 185 190 196 204 215 223 227 229 231 231 231 231 228 227 231 228 229 227 221 211 213 228 243 261 285 292 295
192 187 191 188 188 187 186 187 190 186 180 177 176 178 179 183 184 186 192 201 212 224 226 221 223 224 228 228 228 229 224 225 227 227 224 217 215 225 242 257 268 279 293 293
184 183 185 186 187 187 187 188 187 183 177 177 176 178 180 184 183 184 192 201 215 225 224 222 226 228 230 230 227 224 227 224 224 227 224 227 232 240 253 264 275 282 285 292
174 181 182 183 188 187 187 188 185 180 178 178 179 179 180 181 181 189 198 204 213 226 225 230 235 237 239 236 232 228 223 221 227 229 231 237 240 248 262 269 273 279 283 288
174 180 181 183 188 187 188 185 184 181 180 182 181 179 181 181 189 198 204 214 228 231 217 226 232 236 235 231 228 226 228 233 237 236 241 246 249 260 265 268 274 280 284 288
175 178 180 185 187 188 188 185 186 184 182 185 184 182 188 194 198 204 208 219 239 243 232 230 234 234 234 232 235 241 242 246 248 249 250 258 266 263 268 274 277 281 285 288
174 177 181 183 188 190 186 186 188 188 184 187 189 190 193 198 205 209 211 226 245 248 255 245 241 238 236 237 239 244 248 253 257 258 261 267 269 271 273 275 278 283 286 286
173 176 180 184 187 190 187 190 192 190 187 189 193 196 196 200 206 215 221 230 243 255 265 268 262 246 247 250 253 257 259 262 265 270 274 278 280 279 279 280 283 281 282 285
169 175 179 184 186 190 189 191 194 193 190 192 197 201 203 205 211 217 224 234 242 254 265 274 274 276 271 266 268 264 269 274 278 281 283 288 288 287 285 286 286 288 288 289
170 175 180 188 185 191 192 191 194 196 193 195 199 205 208 210 217 222 229 238 246 252 261 269 276 280 282 284 281 278 278 281 282 283 288 291 291 289 287 289 288 290 292 293
168 175 180 185 189 192 192 192 195 198 198 200 202 209 213 216 222 227 234 240 249 257 263 266 270 278 282 284 283 284 283 284 286 290 290 289 290 289 290 290 290 292 293 294
169 177 183 184 193 192 191 186 196 201 203 204 206 212 217 221 226 231 239 246 253 257 261 266 272 276 279 283 285 287 288 291 293 292 288 286 288 291 291 292 293 293 293 295
169 175 182 184 189 184 187 189 195 203 203 205 210 216 222 227 230 235 241 246 252 257 263 268 272 276 281 284 286 288 293 292 288 286 284 287 289 289 289 291 292 293 293 293
173 169 178 180 176 165 163 183 201 206 207 209 213 219 225 231 235 240 245 250 256 260 265 269 273 277 281 283 285 289 288 286 285 289 289 289 289 289 289 291 291 292 294 296
159 164 170 174 175 177 180 188 189 198 208 212 217 221 226 232 239 245 249 254 258 262 266 271 275 280 281 283 285 287 283 284 286 288 289 292 292 293 294 294 295 296 296 297
152 153 157 165 177 187 198 205 208 214 216 219 222 226 230 236 242 248 252 256 260 264 268 272 276 278 279 283 283 288 285 285 286 288 290 290 292 292 293 294 295 296 298 299
168 161 161 172 180 184 192 202 211 218 224 227 229 233 237 241 245 249 254 259 263 267 271 272 274 275 276 279 285 285 284 284 285 287 289 291 293 295 296 297 298 298 298 297
179 182 185 188 189 191 194 201 209 216 225 230 233 235 238 243 247 252 255 259 261 264 267 270 271 275 278 283 283 283 284 285 287 289 290 291 294 296 298 299 299 299 299 299
192 190 189 193 197 201 205 210 215 220 225 229 232 234 237 244 249 254 258 260 262 266 268 272 275 280 282 283 284 286 288 290 290 291 290 292 294 296 297 297 296 296 295 295
199 199 201 202 205 208 213 220 224 228 231 234 237 242 249 252 255 258 260 265 269 272 275 277 280 280 282 284 286 286 287 287 288 290 291 294 296 296 296 296 295 296 296 295
203 209 214 218 223 226 228 230 231 237 243 250 256 259 263 265 266 265 267 268 270 274 278 278 279 282 286 286 286 286 288 290 292 295 296 296 296 295 294 295 296 296 296 300
218 221 222 224 227 232 236 240 246 253 261 263 262 262 264 266 266 266 268 269 274 278 280 283 288 290 289 288 289 291 293 295 295 294 293 294 297 299 302 304 304 303 299 291
205 220 231 239 242 246 254 258 259 258 259 261 263 265 265 266 266 267 268 271 275 278 280 286 287 287 288 290 292 293 294 294 296 298 300 302 303 304 302 297 293 291 293 294
237 235 239 245 251 255 256 260 264 262 260 261 264 264 265 263 265 268 270 271 275 281 286 286 287 288 290 292 293 295 296 297 299 301 303 302 301 301 302 301 299 299 301 304
221 232 240 248 251 254 253 254 257 258 258 257 258 262 265 265 266 267 269 273 277 280 282 285 288 290 292 294 296 297 300 301 300 299 300 301 300 297 299 303 304 305 308 313
230 236 244 249 250 251 254 256 259 265 267 265 266 270 269 271 271 273 275 277 280 284 286 289 290 292 293 295 296 297 297 297 296 295 295 298 299 300 303 305 307 309 311 314
Height
5561 5580 5597 5610 5620 5631 5643 5656 5664 5673 5679 5687 5694 5701 5708 5715 5720 5725 5729 5733 5737 5740 5743 5745 5747 5749 5751 5752 5754 5756 5758 5759 5761 5763 5764 5765 5767 5769 5771 5772 5774 5773 5772 5774
5558 5573 5590 5604 5616 5626 5637 5649 5659 5667 5674 5683 5691 5699 5707 5713 5719 5724 5728 5732 5736 5738 5740 5742 5743 5744 5746 5748 5750 5752 5754 5756 5758 5760 5763 5764 5766 5767 5768 5769 5769 5769 5768 5768
5552 5568 5586 5598 5611 5622 5632 5644 5652 5661 5669 5681 5690 5698 5704 5711 5717 5723 5727 5730 5732 5734 5736 5736 5738 5740 5742 5744 5746 5749 5751 5753 5755 5758 5759 5761 5762 5764 5764 5765 5765 5764 5765 5762
5549 5566 5581 5596 5608 5618 5629 5637 5646 5658 5665 5677 5686 5695 5703 5710 5716 5721 5725 5728 5730 5731 5732 5733 5735 5737 5738 5740 5743 5745 5748 5750 5752 5754 5756 5757 5759 5760 5760 5761 5760 5759 5759 5757
5547 5566 5580 5592 5605 5614 5625 5634 5644 5655 5667 5675 5683 5692 5700 5707 5713 5719 5723 5725 5727 5728 5729 5731 5732 5734 5736 5738 5740 5742 5745 5747 5749 5750 5753 5754 5755 5756 5756 5756 5755 5753 5751 5753
5550 5566 5578 5590 5603 5613 5622 5631 5643 5653 5663 5672 5680 5691 5699 5706 5711 5716 5719 5722 5724 5725 5726 5728 5730 5731 5733 5736 5738 5739 5742 5744 5746 5748 5749 5749 5750 5754 5751 5750 5749 5747 5745 5744
5552 5565 5577 5590 5601 5612 5621 5631 5642 5651 5659 5669 5679 5688 5696 5703 5708 5713 5716 5720 5722 5723 5724 5726 5727 5729 5731 5733 5735 5737 5739 5741 5742 5744 5744 5742 5747 5747 5745 5742 5741 5739 5737 5733
5554 5566 5578 5589 5600 5610 5619 5629 5639 5648 5657 5667 5676 5685 5693 5699 5705 5709 5713 5717 5719 5721 5722 5723 5725 5727 5729 5731 5732 5734 5736 5737 5737 5737 5738 5738 5738 5738 5738 5734 5734 5730 5726 5721
5557 5567 5578 5589 5599 5609 5618 5626 5636 5647 5656 5665 5673 5682 5689 5696 5702 5706 5710 5714 5716 5718 5720 5722 5723 5724 5726 5728 5730 5730 5731 5731 5731 5731 5730 5729 5730 5731 5728 5724 5722 5719 5715 5712
5558 5568 5579 5589 5597 5607 5615 5625 5636 5645 5654 5661 5670 5678 5685 5692 5698 5702 5706 5710 5712 5715 5717 5719 5720 5721 5723 5723 5725 5725 5725 5724 5724 5723 5721 5721 5721 5719 5716 5714 5711 5706 5703 5700
5560 5570 5579 5587 5597 5605 5614 5624 5634 5644 5652 5659 5667 5675 5682 5688 5693 5698 5703 5706 5708 5711 5713 5715 5716 5717 5718 5719 5720 5720 5719 5718 5718 5716 5714 5712 5709 5707 5705 5702 5697 5694 5691 5688
5560 5570 5580 5587 5596 5604 5614 5624 5634 5641 5649 5657 5665 5671 5677 5683 5687 5693 5696 5700 5703 5706 5708 5710 5711 5712 5713 5713 5713 5712 5712 5711 5710 5710 5707 5701 5697 5693 5690 5688 5685 5682 5679 5675
5563 5571 5579 5587 5595 5603 5614 5623 5631 5638 5646 5653 5661 5667 5673 5678 5683 5687 5692 5694 5698 5699 5701 5703 5704 5705 5706 5705 5704 5704 5702 5701 5700 5697 5695 5689 5685 5682 5679 5676 5673 5670 5667 5663
5565 5572 5580 5587 5596 5604 5613 5620 5627 5635 5643 5650 5657 5662 5668 5672 5677 5681 5685 5688 5690 5692 5694 5695 5696 5696 5696 5696 5694 5693 5692 5690 5687 5684 5681 5678 5676 5673 5670 5666 5663 5660 5656 5652
5566 5573 5580 5588 5596 5604 5611 5617 5624 5631 5639 5645 5652 5657 5663 5667 5671 5674 5678 5681 5683 5684 5686 5687 5687 5688 5687 5685 5684 5684 5681 5676 5673 5672 5671 5667 5666 5663 5659 5656 5653 5648 5645 5641
5566 5574 5581 5588 5596 5603 5609 5615 5621 5627 5634 5641 5646 5652 5656 5661 5664 5667 5670 5673 5675 5676 5677 5677 5677 5678 5676 5674 5673 5673 5670 5666 5663 5661 5658 5656 5653 5650 5647 5644 5640 5637 5633 5629
5570 5576 5582 5588 5596 5603 5607 5615 5621 5626 5632 5637 5641 5646 5650 5654 5657 5660 5662 5664 5665 5666 5667 5667 5668 5667 5664 5663 5661 5662 5660 5657 5653 5650 5648 5646 5642 5640 5636 5633 5629 5625 5620 5615
5572 5578 5585 5590 5596 5602 5608 5614 5618 5622 5627 5631 5636 5640 5645 5647 5650 5652 5653 5655 5656 5657 5657 5657 5657 5655 5654 5653 5654 5652 5650 5647 5644 5640 5637 5634 5631 5628 5624 5620 5616 5611 5607 5602
5573 5578 5584 5590 5595 5600 5605 5609 5614 5618 5624 5626 5631 5635 5637 5639 5642 5644 5645 5646 5647 5647 5647 5648 5647 5646 5645 5645 5643 5641 5639 5637 5634 5630 5627 5623 5620 5616 5612 5608 5604 5599 5593 5589
5574 5579 5583 5588 5592 5597 5602 5605 5609 5613 5616 5621 5625 5628 5632 5634 5635 5636 5638 5637 5637 5637 5639 5638 5638 5637 5636 5634 5632 5630 5628 5625 5621 5618 5615 5611 5608 5604 5600 5596 5591 5585 5580 5574
5573 5578 5583 5587 5591 5595 5598 5601 5605 5608 5612 5616 5620 5623 5625 5627 5628 5628 5627 5628 5628 5628 5629 5629 5628 5627 5625 5623 5621 5619 5616 5613 5610 5606 5603 5599 5596 5591 5587 5582 5577 5571 5566 5560
5572 5576 5580 5585 5588 5592 5593 5596 5600 5604 5608 5612 5614 5616 5617 5618 5619 5619 5619 5619 5618 5618 5619 5618 5617 5618 5615 5612 5609 5606 5603 5601 5598 5595 5591 5587 5582 5577 5572 5567 5561 5556 5550 5543
5569 5573 5577 5580 5583 5584 5587 5592 5597 5600 5602 5604 5606 5607 5609 5609 5610 5609 5609 5608 5609 5609 5607 5605 5607 5605 5603 5600 5596 5593 5591 5588 5585 5580 5576 5571 5565 5559 5554 5548 5542 5536 5531 5527
5564 5568 5571 5573 5575 5578 5584 5588 5591 5592 5594 5595 5596 5598 5599 5599 5599 5599 5599 5599 5599 5597 5597 5597 5595 5592 5589 5586 5584 5580 5576 5572 5567 5563 5558 5553 5548 5543 5538 5533 5528 5522 5517 5512
5558 5561 5563 5565 5570 5573 5576 5578 5580 5581 5583 5585 5586 5588 5589 5590 5589 5590 5590 5589 5588 5588 5587 5585 5582 5580 5576 5572 5568 5564 5560 5555 5551 5547 5542 5536 5531 5526 5521 5518 5513 5508 5502 5496
5552 5554 5557 5560 5563 5565 5568 5570 5571 5573 5574 5576 5577 5578 5579 5579 5579 5580 5579 5579 5578 5577 5574 5571 5568 5565 5561 5557 5553 5549 5544 5540 5535 5531 5526 5522 5518 5514 5508 5503 5498 5493 5488 5482
5547 5549 5552 5554 5556 5557 5559 5561 5563 5564 5566 5567 5568 5569 5569 5569 5568 5569 5568 5566 5564 5562 5560 5557 5554 5551 5547 5543 5540 5536 5532 5527 5523 5519 5514 5510 5505 5501 5496 5491 5485 5480 5473 5467